| time (UTC) | temp F | wind direction | speed MPH | gust MPH | rain 1hr in | rain 24hr in | rain mn in | humidity % | barometer mb |
| 20260831114526 | 62 | 303 | 0.0 | 0.0 | 0.00 | 0.01 | 0.00 | 97 | 1019.7 |
| 20260831113026 | 62 | 303 | 0.0 | 0.0 | 0.00 | 0.01 | 0.00 | 97 | 1019.6 |
| 20260831111528 | 62 | 303 | 0.0 | 0.0 | 0.00 | 0.01 | 0.00 | 96 | 1019.4 |
| 20260831110028 | 62 | 303 | 0.0 | 0.0 | 0.00 | 0.01 | 0.00 | 96 | 1019.6 |
| 20260831104532 | 62 | 303 | 0.0 | 0.0 | 0.00 | 0.01 | 0.00 | 96 | 1019.4 |
| 20260831103026 | 62 | 303 | 0.0 | 0.0 | 0.00 | 0.01 | 0.00 | 96 | 1019.4 |
| 20260831101539 | 62 | 303 | 0.0 | 0.0 | 0.00 | 0.01 | 0.00 | 96 | 1019.1 |
| 20260831100042 | 62 | 303 | 0.0 | 0.0 | 0.00 | 0.01 | 0.00 | 97 | 1019.1 |
| 20260831094538 | 62 | 303 | 0.0 | 0.0 | 0.00 | 0.01 | 0.00 | 96 | 1019.0 |
| 20260831093038 | 62 | 303 | 0.0 | 0.0 | 0.00 | 0.01 | 0.00 | 96 | 1019.0 |
| 20260831091533 | 62 | 303 | 0.0 | 0.0 | 0.00 | 0.01 | 0.00 | 96 | 1019.2 |
| 20260831090030 | 62 | 303 | 0.0 | 0.0 | 0.00 | 0.01 | 0.00 | 96 | 1019.1 |
| 20260831084530 | 62 | 303 | 0.0 | 0.0 | 0.00 | 0.01 | 0.00 | 96 | 1019.2 |
| 20260831083029 | 62 | 303 | 0.0 | 0.0 | 0.00 | 0.01 | 0.00 | 96 | 1019.1 |
| 20260831081540 | 62 | 303 | 0.0 | 0.0 | 0.00 | 0.01 | 0.00 | 96 | 1019.3 |
| 20260831080040 | 62 | 303 | 0.0 | 0.0 | 0.00 | 0.01 | 0.00 | 96 | 1019.0 |
| 20260831074536 | 62 | 303 | 0.0 | 0.0 | 0.00 | 0.01 | 0.00 | 96 | 1019.2 |
| 20260831073036 | 62 | 303 | 0.0 | 0.0 | 0.00 | 0.01 | 0.00 | 96 | 1019.3 |
| 20260831071522 | 62 | 303 | 0.0 | 0.0 | 0.00 | 0.01 | 0.00 | 96 | 1019.2 |
| 20260831070021 | 62 | 303 | 0.0 | 0.0 | 0.00 | 0.01 | 0.00 | 96 | 1019.3 |
| 20260831064517 | 62 | 303 | 0.0 | 0.0 | 0.00 | 0.01 | 0.00 | 96 | 1019.2 |
| 20260831063017 | 62 | 303 | 0.0 | 1.0 | 0.00 | 0.01 | 0.01 | 95 | 1019.2 |
| 20260831061519 | 63 | 303 | 0.0 | 0.0 | 0.00 | 0.01 | 0.01 | 96 | 1019.4 |
| 20260831060018 | 63 | 303 | 0.0 | 0.0 | 0.00 | 0.01 | 0.01 | 96 | 1019.6 |
| 20260831054518 | 63 | 303 | 0.0 | 0.0 | 0.00 | 0.01 | 0.01 | 95 | 1019.7 |
| 20260831053020 | 63 | 303 | 0.0 | 0.0 | 0.00 | 0.01 | 0.01 | 95 | 1019.8 |
| 20260831051527 | 63 | 303 | 0.0 | 0.0 | 0.00 | 0.01 | 0.01 | 95 | 1020.0 |
| 20260831050016 | 63 | 303 | 0.0 | 0.0 | 0.00 | 0.01 | 0.01 | 95 | 1020.0 |
| 20260831044521 | 63 | 303 | 0.0 | 0.0 | 0.01 | 0.01 | 0.01 | 95 | 1020.2 |
| 20260831043016 | 63 | 303 | 0.0 | 0.0 | 0.01 | 0.01 | 0.01 | 94 | 1020.1 |
| 20260831041519 | 64 | 303 | 0.0 | 0.0 | 0.01 | 0.01 | 0.01 | 94 | 1020.0 |
| 20260831040019 | 64 | 303 | 0.0 | 0.0 | 0.01 | 0.01 | 0.01 | 94 | 1019.9 |
| 20260831034519 | 64 | 303 | 0.0 | 0.0 | 0.00 | 0.00 | 0.00 | 93 | 1020.1 |
| 20260831033031 | 64 | 303 | 0.0 | 0.0 | 0.00 | 0.00 | 0.00 | 93 | 1020.3 |
| 20260831031515 | 64 | 303 | 0.0 | 0.0 | 0.00 | 0.00 | 0.00 | 93 | 1020.3 |
| 20260831030012 | 64 | 303 | 0.0 | 0.0 | 0.00 | 0.00 | 0.00 | 93 | 1020.4 |
| 20260831024512 | 64 | 303 | 0.0 | 0.0 | 0.00 | 0.00 | 0.00 | 93 | 1020.3 |
| 20260831023010 | 64 | 303 | 0.0 | 0.0 | 0.00 | 0.00 | 0.00 | 92 | 1020.1 |
| 20260831021513 | 65 | 303 | 0.0 | 0.0 | 0.00 | 0.00 | 0.00 | 92 | 1020.1 |
| 20260831020014 | 64 | 303 | 0.0 | 0.0 | 0.00 | 0.00 | 0.00 | 91 | 1020.2 |
| 20260831014510 | 65 | 303 | 0.0 | 0.0 | 0.00 | 0.00 | 0.00 | 91 | 1020.1 |
| 20260831013010 | 65 | 303 | 0.0 | 0.0 | 0.00 | 0.00 | 0.00 | 91 | 1020.0 |
| 20260831011524 | 65 | 303 | 0.0 | 0.0 | 0.00 | 0.00 | 0.00 | 91 | 1019.9 |
| 20260831010023 | 66 | 303 | 0.0 | 0.0 | 0.00 | 0.00 | 0.00 | 89 | 1019.8 |
| 20260831004526 | 66 | 303 | 0.0 | 1.0 | 0.00 | 0.00 | 0.00 | 88 | 1020.0 |
| 20260831003032 | 66 | 303 | 0.0 | 3.0 | 0.00 | 0.00 | 0.00 | 88 | 1019.7 |
| 20260831001513 | 66 | 300 | 0.0 | 2.0 | 0.00 | 0.00 | 0.00 | 89 | 1019.4 |
| 20260831000010 | 66 | 300 | 0.0 | 0.0 | 0.00 | 0.00 | 0.00 | 89 | 1018.8 |
| 20260830234525 | 67 | 300 | 0.0 | 0.0 | 0.00 | 0.00 | 0.00 | 88 | 1018.9 |
| 20260830233008 | 67 | 300 | 0.0 | 0.0 | 0.00 | 0.00 | 0.00 | 87 | 1018.8 |
| 20260830231507 | 68 | 300 | 0.0 | 0.0 | 0.00 | 0.00 | 0.00 | 86 | 1018.8 |
| 20260830230004 | 68 | 300 | 0.0 | 0.0 | 0.00 | 0.00 | 0.00 | 86 | 1018.7 |
| 20260830224504 | 68 | 300 | 0.0 | 0.0 | 0.00 | 0.00 | 0.00 | 86 | 1018.8 |
| 20260830223004 | 68 | 300 | 0.0 | 1.0 | 0.00 | 0.00 | 0.00 | 87 | 1019.1 |
| 20260830221507 | 68 | 299 | 1.0 | 3.0 | 0.00 | 0.00 | 0.00 | 87 | 1018.8 |
| 20260830220004 | 68 | 304 | 1.0 | 5.0 | 0.00 | 0.00 | 0.00 | 87 | 1018.8 |
| 20260830214503 | 68 | 250 | 0.0 | 3.0 | 0.00 | 0.00 | 0.00 | 86 | 1018.9 |
| 20260830213004 | 69 | 325 | 0.0 | 4.0 | 0.00 | 0.00 | 0.00 | 84 | 1018.8 |
| 20260830211508 | 70 | 289 | 0.0 | 2.0 | 0.00 | 0.00 | 0.00 | 82 | 1018.8 |
| 20260830210008 | 71 | 278 | 1.0 | 5.0 | 0.00 | 0.00 | 0.00 | 80 | 1018.8 |
| 20260830204508 | 71 | 269 | 0.0 | 4.0 | 0.00 | 0.00 | 0.00 | 79 | 1018.6 |
| 20260830203007 | 71 | 271 | 1.0 | 7.0 | 0.00 | 0.00 | 0.00 | 79 | 1018.7 |
| 20260830201501 | 72 | 309 | 0.0 | 8.0 | 0.00 | 0.00 | 0.00 | 78 | 1018.7 |
| 20260830200100 | 72 | 302 | 2.0 | 7.0 | 0.00 | 0.00 | 0.00 | 76 | 1018.7 |
| 20260830194603 | 72 | 265 | 1.0 | 9.0 | 0.00 | 0.00 | 0.00 | 76 | 1018.9 |
| 20260830193100 | 73 | 240 | 1.0 | 9.0 | 0.00 | 0.00 | 0.00 | 74 | 1018.8 |
| 20260830191513 | 73 | 208 | 0.0 | 4.0 | 0.00 | 0.00 | 0.00 | 76 | 1018.9 |
| 20260830190006 | 73 | 216 | 1.0 | 4.0 | 0.00 | 0.00 | 0.00 | 75 | 1019.1 |
| 20260830184504 | 71 | 297 | 0.0 | 3.0 | 0.00 | 0.00 | 0.00 | 77 | 1019.2 |
| 20260830183004 | 72 | 292 | 0.0 | 4.0 | 0.00 | 0.00 | 0.00 | 76 | 1019.2 |
| 20260830181555 | 73 | 280 | 1.0 | 5.0 | 0.00 | 0.00 | 0.00 | 73 | 1019.1 |
| 20260830180100 | 74 | 258 | 1.0 | 5.0 | 0.00 | 0.00 | 0.00 | 70 | 1019.1 |
| 20260830174602 | 74 | 186 | 0.0 | 5.0 | 0.00 | 0.00 | 0.00 | 71 | 1019.3 |
| 20260830173114 | 75 | 196 | 0.0 | 7.0 | 0.00 | 0.00 | 0.00 | 73 | 1019.4 |
| 20260830171553 | 74 | 248 | 1.0 | 6.0 | 0.00 | 0.00 | 0.00 | 72 | 1019.6 |
| 20260830170047 | 73 | 202 | 2.0 | 5.0 | 0.00 | 0.00 | 0.00 | 74 | 1019.7 |
| 20260830164545 | 73 | 292 | 0.0 | 7.0 | 0.00 | 0.00 | 0.00 | 73 | 1019.9 |
| 20260830163042 | 72 | 224 | 1.0 | 7.0 | 0.00 | 0.00 | 0.00 | 74 | 1019.8 |
| 20260830161555 | 70 | 229 | 1.0 | 4.0 | 0.00 | 0.00 | 0.00 | 76 | 1020.0 |
| 20260830160041 | 69 | 194 | 0.0 | 5.0 | 0.00 | 0.00 | 0.00 | 78 | 1020.3 |
| 20260830154540 | 69 | 222 | 1.0 | 6.0 | 0.00 | 0.00 | 0.00 | 77 | 1020.5 |
| 20260830153041 | 69 | 211 | 1.0 | 5.0 | 0.00 | 0.00 | 0.00 | 75 | 1020.4 |
| 20260830151538 | 69 | 258 | 0.0 | 3.0 | 0.00 | 0.00 | 0.00 | 75 | 1020.6 |
| 20260830150035 | 69 | 250 | 1.0 | 5.0 | 0.00 | 0.00 | 0.00 | 75 | 1020.4 |
| 20260830144541 | 68 | 261 | 0.0 | 6.0 | 0.00 | 0.00 | 0.00 | 76 | 1020.4 |
| 20260830143030 | 67 | 232 | 2.0 | 5.0 | 0.00 | 0.00 | 0.00 | 76 | 1020.1 |
| 20260830141529 | 65 | 207 | 0.0 | 3.0 | 0.00 | 0.00 | 0.00 | 80 | 1020.3 |
| 20260830140029 | 64 | 207 | 1.0 | 4.0 | 0.00 | 0.00 | 0.00 | 79 | 1020.1 |
| 20260830134526 | 64 | 243 | 0.0 | 5.0 | 0.00 | 0.00 | 0.00 | 79 | 1020.3 |
| 20260830133030 | 64 | 235 | 0.0 | 5.0 | 0.00 | 0.00 | 0.00 | 78 | 1020.4 |
| 20260830131516 | 63 | 223 | 1.0 | 4.0 | 0.00 | 0.00 | 0.00 | 79 | 1020.6 |
| 20260830130013 | 62 | 254 | 0.0 | 3.0 | 0.00 | 0.00 | 0.00 | 80 | 1020.8 |
| 20260830124516 | 61 | 228 | 0.0 | 2.0 | 0.00 | 0.00 | 0.00 | 80 | 1020.8 |
| 20260830123010 | 61 | 227 | 0.0 | 1.0 | 0.00 | 0.00 | 0.00 | 81 | 1020.8 |
| 20260830121512 | 60 | 227 | 0.0 | 1.0 | 0.00 | 0.00 | 0.00 | 81 | 1021.0 |
| 20260830120011 | 60 | 227 | 0.0 | 1.0 | 0.00 | 0.00 | 0.00 | 82 | 1020.7 |